Regional Weather Roundup
Issued by NWS Charleston, SC

Current Version | Previous Version | Graphics & Text | Print | Product List | Glossary On
Versions: 1 2 3 4 5 6 7 8 9 10 11 12 13 14 15 16 17 18 19 20 21 22 23 24 25 26 27 28 29 30 31 32 33 34 35 36 37 38 39 40 41 42 43 44 45 46 47 48 49 50
000
ASUS42 KCHS 010410
RWRCHS

REGIONAL WEATHER ROUNDUP
NATIONAL WEATHER SERVICE CHARLESTON SC
1200 AM EDT MON SEP 01 2014

NOTE: "FAIR" INDICATES FEW OR NO CLOUDS BELOW 12,000 FEET WITH NO
SIGNIFICANT WEATHER AND/OR OBSTRUCTIONS TO VISIBILITY.

NOT ALL STATIONS ARE QUALITY CONTROLLED BY THE NATIONAL
WEATHER SERVICE. USE DATA WITH CAUTION...ESPECIALLY
DEWPOINT OBSERVATIONS.

SCZ027-030-031-034>040-042>050-010500-
...SOUTH CAROLINA...

CITY           SKY/WX    TMP DP  RH WIND       PRES   REMARKS
N CHARLESTON   PTCLDY    79  75  87 SW5       30.12S
WATERFRONT PRK   N/A     82 N/A N/A SW5         N/A
FORT JOHNSON   NOT AVBL
MOUNT PLEASANT FAIR      77  75  94 CALM      30.12S
JOHNS ISLAND   PTCLDY    81  79  94 CALM      30.12S
PINOPOLIS        N/A     82  75  78 CALM      30.04F
MONCKS CORNER    N/A     77  77 100 CALM      30.11S
SUMMERVILLE    FAIR      77  73  88 S5        30.12S
BEAUFORT MCAS  MOCLDY    82  76  81 SW5       30.12S
BEAUFORT ARPT  FAIR      79  79 100 CALM      30.11S
HILTON HEAD IS MOCLDY    79  77  94 CALM      30.13S
GEORGETOWN     NOT AVBL
WALTERBORO     CLOUDY    77 N/A N/A CALM      30.12S
ORANGEBURG     CLOUDY    76  72  87 S3        30.12R
BARNWELL       FAIR      75  73  94 S3        30.12S
AIKEN          FAIR      73  73 100 S3        30.15S
MANNING        FAIR      77  75  94 CALM      30.11S
KINGSTREE      NOT AVBL
COLUMBIA       MOCLDY    77  74  90 CALM      30.10R
SUMTER         CLOUDY    75  74  98 SE2       30.10R
FLORENCE       CLOUDY    79  73  82 S6        30.10S
MYRTLE BEACH   PTCLDY    81  73  78 W7        30.11F
N MYRTLE BEACH PTCLDY    82  74  76 S13       30.10F

$$

GAZ063-065-086>088-099>101-113>116-118-119-134-136>141-150-010500-
...GEORGIA...

CITY           SKY/WX    TMP DP  RH WIND       PRES   REMARKS
SAVANNAH ARPT  MOCLDY    80  74  81 S6        30.12S
HUNTER AAF     MOCLDY    80  76  88 SE2       30.10F
FORT STEWART   MOCLDY    75  71  85 SW5       30.11S
STATESBORO     NOT AVBL
SYLVANIA       CLOUDY    70  70 100 CALM      30.12F FOG
CLAXTON        NOT AVBL
THOMSON        CLOUDY    78  77  96 CALM      30.16S
AUGUSTA-BUSH   CLOUDY    74  73  97 CALM      30.10F
AUGUSTA-DANIEL CLOUDY    76  73  91 SE6       30.12S
SWAINSBORO     FAIR      79  79 100 CALM      30.11F
VIDALIA          N/A     73  73 100 SW3       30.13R
ALMA           LGT RAIN  74  73  97 S7        30.12F
WAYCROSS       LGT RAIN  77  76  96 W7        30.13S
JESUP          DRIZZLE   77  75  94 CALM      30.13S
BRUNSWICK      PTCLDY    77  72  83 CALM      30.13F
SAINT SIMONS   PTCLDY    80  75  84 CALM      30.13S

$$

SCZ027-028-034-036>038-045-046-048>050-GAZ119-141-010500-
...LAKE AND SUPPLEMENTAL COASTAL OBSERVATIONS...

STATION/POSITION TIME  TEMP    WIND        PRES    WAVE   SWELL
                       AIR SEA DIR/SP/G            HT/PER HT/PER/DIR
                 (UTC) (F)     (DEG/KT/KT) (MB)    (FT/S) (FT/S/D)
UPR LAKE MARION  NOT AVBL
WINYAH BAY       0300   80     240/  3     1020.0S
LAKE MURRAY      0300   81     230/  5/  6 1018.6S
ACE BASIN NERRS  0300   79        CALM     1020.0S
FORT PULASKI     0400   81     230/  3/  4 1019.9F
SAPELO ISLAND    0300   82     260/  6     1021.0S

$$

ANZ835-935-AMZ111-154-330-350-352-354-374-450-454-472-010500-
...C-MAN AND BUOY OBSERVATIONS...

STATION/POSITION TIME  TEMP    WIND        PRES    WAVE   SWELL
                       AIR SEA DIR/SP/G            HT/PER HT/PER/DIR
                 (UTC) (F)     (DEG/KT/KT) (MB)    (FT/S) (FT/S/D)
FOLLY BEACH CMAN 0300   83     200/  9/ 11 1020.3F
BUOY 41004       0400   82 83  200/  8/ 10 1019.5F   2/ 9   2/ 9
BUOY 41008       0400   83 85  190/ 12/ 14 1019.8F   2/ 9   2/100/ 9
5E ST. MARYS GA  0400      84                N/A     3/ 9
FRYING PAN BUOY  NOT AVBL
BUOY 41025       0400   81     190/ 16/ 19 1020.0F   3/ 8   3/120/ 8
CAPE LOOKOUT NC  0300   81     200/  7/  9 1020.3R
BUOY 41002       0308   81 83  200/  4/  6 1022.4R   3/ 8   3/120/ 8
BUOY 41010       0400   83 84  130/  6/ 10 1021.0F   3/ 9   3/110/ 9
BUOY 41012       NOT AVBL
ST AUGUSTINE FL  0400   83     180/ 10/ 12 1020.9S
CAPERS NEARSHORE 0300   82     210/  8/ 10   N/A
FRIPP NEARSHORE  NOT AVBL


$$


USA.gov is the U.S. government's official web portal to all federal, state and local government web resources and services.